Regional Weather Roundup
Issued by NWS

Home | Current Version | Previous Version | Graphics & Text | Print | Product List | Glossary On
Versions: 1 2 3 4 5 6 7 8 9 10 11 12 13 14 15 16 17 18 19 20 21 22 23 24 25 26 27 28 29 30 31 32 33 34 35 36 37 38 39 40 41 42 43 44 45 46 47 48 49 50
000
ASUS45 KABQ 291001
RWRNM
WEATHER ROUNDUP FOR NEW MEXICO
NATIONAL WEATHER SERVICE ALBUQUERQUE NM
400 AM MDT TUE JUL 29 2014

NOTE: "FAIR" MEANS FEW OR NO CLOUDS BELOW 12,000 FEET AGL WITH NO
       SIGNIFICANT WEATHER OR OBSTRUCTIONS TO VISION.

      THIS PRODUCT IS RELEASED AS TWO VERSIONS.  ONE VERSION NEAR
      THE TOP OF THE HOUR CONTAINING PRELIMINARY DATA FROM ALBUQUERQUE
      AND OTHER STATIONS.  A FINAL VERSION WITH ADDITIONAL DATA IS
      ISSUED ABOUT 10 MINUTES AFTER THE HOUR.

NMZ501-503-504-510>518-291100-
NORTHWEST PLATEAU/NORTHCENTRAL MOUNTAINS

CITY           SKY/WX    TMP DP  RH WIND       PRES   REMARKS
FARMINGTON     CLOUDY    64  58  80 E6        30.29F
LOS ALAMOS     LGT RAIN  57  57 100 S6        30.42F
SANTA FE       CLOUDY    61  59  93 CALM      30.36F
TAOS           CLEAR     55  50  82 NW3       30.43S
ANGEL FIRE     CLOUDY    53  52  96 SW3       30.49F FOG

$$
NMZ402-403-502-505>509-291100-
WESTCENTRAL MOUNTAINS/SOUTHWEST MOUNTAINS

CITY           SKY/WX    TMP DP  RH WIND       PRES   REMARKS
GALLUP         CLOUDY    60  57  89 CALM      30.36F

$$
NMZ407-409-411-412-291100-
SOUTHERN DESERTS

CITY           SKY/WX    TMP DP  RH WIND       PRES   REMARKS
LORDSBURG      FAIR      68  57  68 CALM      30.19S
DEMING         CLOUDY    73  62  68 SE8       30.20R
LAS CRUCES     CLOUDY    71  63  75 NE7       30.21S
HOLLOMAN AFB   CLOUDY    70  68  94 N10       30.20S
T OR C         PTCLDY    69  61  75 E6        30.24S

$$
NMZ519>523-291100-
CENTRAL VALLEYS/CENTRAL HIGHLANDS

CITY           SKY/WX    TMP DP  RH WIND       PRES   REMARKS
ALBUQUERQUE    MOCLDY    68  61  78 NE10      30.30F
DOUBLE EAGLE   MOCLDY    63  59  89 N5        30.33S
CLINES CORNERS CLOUDY    61  58  90 CALM      30.40S
BELEN          CLOUDY    66  62  85 CALM      30.29S
SOCORRO        LGT RAIN  68  63  84 E3        30.28S

$$
NMZ524>526-539-540-291100-
SOUTHCENTRAL MOUNTAINS

CITY           SKY/WX    TMP DP  RH WIND       PRES   REMARKS
RUIDOSO        NOT AVBL

$$
NMZ527>531-291100-
NORTHEAST HIGHLANDS/NORTHEAST PLAINS

CITY           SKY/WX    TMP DP  RH WIND       PRES   REMARKS
LAS VEGAS      CLOUDY    58  56  93 S9        30.39F
RATON          CLOUDY    59  57  93 CALM      30.33F
CLAYTON        CLOUDY    64  61  90 S12       30.27F

$$
NMZ532>537-291100-
EASTCENTRAL PLAINS

CITY           SKY/WX    TMP DP  RH WIND       PRES   REMARKS
TUCUMCARI      CLOUDY    70  66  87 SW7       30.25R
CANNON AFB     NOT AVBL
CLOVIS AIRPORT NOT AVBL

$$
NMZ028-029-538-291100-
SOUTHEAST PLAINS

CITY           SKY/WX    TMP DP  RH WIND       PRES   REMARKS
ROSWELL        CLOUDY    71  68  90 E5        30.22R
ARTESIA        CLOUDY    77  63  61 E3        30.20S
CARLSBAD       PTCLDY    76  62  62 CALM      30.16R
HOBBS          MOCLDY    73  63  68 E9        30.21S


$$



USA.gov is the U.S. government's official web portal to all federal, state and local government web resources and services.